Time,TemperatureF,DewpointF,PressureIn,WindDirection,WindDirectionDegrees,WindSpeedMPH,WindSpeedGustMPH,Humidity,HourlyPrecipIn,Conditions,Clouds,dailyrainin,SoftwareType,DateUTC
2013-06-29 00:00:00,65.5,65.5,29.47,North,7,0.0,0.0,100,0.00,,---,0.00,VWS V14.01,2013-06-29 04:00:00,
2013-06-29 00:05:00,65.3,65.3,29.47,NNE,14,0.0,0.0,100,0.00,,---,0.00,VWS V14.01,2013-06-29 04:05:00,
2013-06-29 00:10:00,65.3,65.3,29.47,North,7,0.0,0.0,100,0.00,,---,0.00,VWS V14.01,2013-06-29 04:10:00,
2013-06-29 00:15:00,65.5,65.5,29.47,North,8,0.0,0.0,100,0.00,,---,0.00,VWS V14.01,2013-06-29 04:15:00,
2013-06-29 00:20:00,65.7,65.7,29.47,North,7,0.0,0.0,100,0.00,,---,0.00,VWS V14.01,2013-06-29 04:20:00,
2013-06-29 00:25:00,65.7,65.7,29.47,North,7,0.0,0.0,100,0.00,,---,0.00,VWS V14.01,2013-06-29 04:25:00,
2013-06-29 00:30:00,65.7,65.7,29.47,North,7,0.0,0.0,100,0.00,,---,0.00,VWS V14.01,2013-06-29 04:30:00,
2013-06-29 00:35:00,65.8,65.8,29.47,North,7,0.0,0.0,100,0.00,,---,0.00,VWS V14.01,2013-06-29 04:35:00,
2013-06-29 00:40:00,65.8,65.8,29.47,North,7,0.0,0.0,100,0.00,,---,0.00,VWS V14.01,2013-06-29 04:40:00,
2013-06-29 00:45:00,65.7,65.7,29.47,North,7,0.0,0.0,100,0.00,,---,0.00,VWS V14.01,2013-06-29 04:45:00,
2013-06-29 00:50:00,65.5,65.5,29.47,North,8,0.0,0.0,100,0.00,,---,0.00,VWS V14.01,2013-06-29 04:50:00,
2013-06-29 00:55:00,65.1,65.1,29.47,North,8,0.0,0.0,100,0.00,,---,0.00,VWS V14.01,2013-06-29 04:55:00,
2013-06-29 01:00:00,65.1,65.1,29.47,North,8,0.0,0.0,100,0.00,,---,0.00,VWS V14.01,2013-06-29 05:00:00,
2013-06-29 01:05:00,64.9,64.9,29.47,North,8,0.0,0.0,100,0.00,,---,0.00,VWS V14.01,2013-06-29 05:05:00,
2013-06-29 01:10:00,64.8,64.8,29.47,North,8,0.0,0.0,100,0.00,,---,0.00,VWS V14.01,2013-06-29 05:10:00,
2013-06-29 01:15:00,64.9,64.9,29.47,North,7,0.0,0.4,100,0.00,,---,0.00,VWS V14.01,2013-06-29 05:15:00,
2013-06-29 01:20:00,65.1,65.1,29.47,North,7,0.0,0.0,100,0.00,,---,0.00,VWS V14.01,2013-06-29 05:20:00,
2013-06-29 01:25:00,64.9,64.9,29.47,North,7,0.0,0.0,100,0.00,,---,0.00,VWS V14.01,2013-06-29 05:25:00,
2013-06-29 01:30:00,65.1,65.1,29.47,North,7,0.0,0.0,100,0.00,,---,0.00,VWS V14.01,2013-06-29 05:30:00,
2013-06-29 01:35:00,65.5,65.5,29.47,North,7,0.0,0.0,100,0.00,,---,0.00,VWS V14.01,2013-06-29 05:35:00,
2013-06-29 01:40:00,65.7,65.7,29.47,North,7,0.0,0.0,100,0.00,,---,0.00,VWS V14.01,2013-06-29 05:40:00,
2013-06-29 01:45:00,65.7,65.7,29.47,North,7,0.0,0.0,100,0.00,,---,0.00,VWS V14.01,2013-06-29 05:45:00,
2013-06-29 01:50:00,65.8,65.8,29.47,North,7,0.0,0.0,100,0.00,,---,0.00,VWS V14.01,2013-06-29 05:50:00,
2013-06-29 01:55:00,66.0,66.0,29.47,North,7,0.0,0.0,100,0.00,,---,0.00,VWS V14.01,2013-06-29 05:55:00,
2013-06-29 02:00:00,66.0,66.0,29.47,North,7,0.0,0.4,100,0.00,,---,0.00,VWS V14.01,2013-06-29 06:00:00,
2013-06-29 02:05:00,66.2,66.2,29.47,North,7,0.0,0.0,100,0.00,,---,0.00,VWS V14.01,2013-06-29 06:05:00,
2013-06-29 02:10:00,66.2,66.2,29.47,North,8,0.0,0.0,100,0.00,,---,0.00,VWS V14.01,2013-06-29 06:10:00,
2013-06-29 02:15:00,66.4,66.4,29.47,North,7,0.0,0.0,100,0.00,,---,0.00,VWS V14.01,2013-06-29 06:15:00,
2013-06-29 02:20:00,66.4,66.4,29.47,North,7,0.0,0.0,100,0.00,,---,0.00,VWS V14.01,2013-06-29 06:20:00,
2013-06-29 02:25:00,66.6,66.6,29.47,North,7,0.0,0.0,100,0.00,,---,0.00,VWS V14.01,2013-06-29 06:25:00,
2013-06-29 02:30:00,66.6,66.6,29.47,North,7,0.0,0.0,100,0.00,,---,0.00,VWS V14.01,2013-06-29 06:30:00,
2013-06-29 02:35:00,66.4,66.4,29.47,North,7,0.0,0.0,100,0.00,,---,0.00,VWS V14.01,2013-06-29 06:35:00,
2013-06-29 02:40:00,66.6,66.6,29.47,North,7,0.0,0.0,100,0.00,,---,0.00,VWS V14.01,2013-06-29 06:40:00,
2013-06-29 02:45:00,66.6,66.6,29.47,North,7,0.0,0.0,100,0.00,,---,0.00,VWS V14.01,2013-06-29 06:45:00,
2013-06-29 02:50:00,66.6,66.6,29.47,North,7,0.0,0.0,100,0.00,,---,0.00,VWS V14.01,2013-06-29 06:50:00,
2013-06-29 02:55:00,66.6,66.6,29.47,North,7,0.0,0.0,100,0.00,,---,0.00,VWS V14.01,2013-06-29 06:55:00,
2013-06-29 03:00:00,66.6,66.6,29.47,North,7,0.0,0.0,100,0.00,,---,0.00,VWS V14.01,2013-06-29 07:00:00,
2013-06-29 03:05:00,66.7,66.7,29.47,North,7,0.0,0.0,100,0.00,,---,0.00,VWS V14.01,2013-06-29 07:05:00,
2013-06-29 03:10:00,66.7,66.7,29.47,North,7,0.0,0.0,100,0.00,,---,0.00,VWS V14.01,2013-06-29 07:10:00,
2013-06-29 03:15:00,66.7,66.7,29.47,North,7,0.0,0.0,100,0.00,,---,0.00,VWS V14.01,2013-06-29 07:15:00,
2013-06-29 03:20:00,66.9,66.9,29.47,North,7,0.0,0.0,100,0.00,,---,0.00,VWS V14.01,2013-06-29 07:20:00,
2013-06-29 03:25:00,66.9,66.9,29.47,North,7,0.0,0.0,100,0.00,,---,0.00,VWS V14.01,2013-06-29 07:25:00,
2013-06-29 03:30:00,66.9,66.9,29.47,North,7,0.0,0.0,100,0.00,,---,0.00,VWS V14.01,2013-06-29 07:30:00,
2013-06-29 03:35:00,67.1,67.1,29.47,North,7,0.0,0.0,100,0.00,,---,0.00,VWS V14.01,2013-06-29 07:35:00,
2013-06-29 03:40:00,67.1,67.1,29.47,North,7,0.0,0.0,100,0.00,,---,0.00,VWS V14.01,2013-06-29 07:40:00,
2013-06-29 03:45:00,67.3,67.3,29.47,North,7,0.0,0.0,100,0.00,,---,0.00,VWS V14.01,2013-06-29 07:45:00,
2013-06-29 03:50:00,67.3,67.3,29.47,North,7,0.0,0.4,100,0.00,,---,0.00,VWS V14.01,2013-06-29 07:50:00,
2013-06-29 03:55:00,67.3,67.3,29.47,North,7,0.0,0.0,100,0.00,,---,0.00,VWS V14.01,2013-06-29 07:55:00,
2013-06-29 04:00:00,67.1,67.1,29.47,North,7,0.0,0.0,100,0.00,,---,0.00,VWS V14.01,2013-06-29 08:00:00,
2013-06-29 04:05:00,66.7,66.7,29.47,North,7,0.0,3.1,100,0.00,,---,0.00,VWS V14.01,2013-06-29 08:05:00,
2013-06-29 04:10:00,66.7,66.7,29.47,North,7,0.0,0.0,100,0.00,,---,0.00,VWS V14.01,2013-06-29 08:10:00,
2013-06-29 04:15:00,66.7,66.7,29.47,North,7,0.0,0.0,100,0.00,,---,0.00,VWS V14.01,2013-06-29 08:15:00,
2013-06-29 04:20:00,66.7,66.7,29.47,North,7,0.0,0.0,100,0.00,,---,0.00,VWS V14.01,2013-06-29 08:20:00,
2013-06-29 04:25:00,66.7,66.7,29.47,North,7,2.7,3.1,100,0.00,,---,0.00,VWS V14.01,2013-06-29 08:25:00,
2013-06-29 04:30:00,66.7,66.7,29.44,North,7,0.0,2.7,100,0.00,,---,0.00,VWS V14.01,2013-06-29 08:30:00,
2013-06-29 04:35:00,66.7,66.7,29.44,North,7,0.0,0.0,100,0.00,,---,0.00,VWS V14.01,2013-06-29 08:35:00,
2013-06-29 04:40:00,66.7,66.7,29.44,North,7,0.0,0.0,100,0.00,,---,0.00,VWS V14.01,2013-06-29 08:40:00,
2013-06-29 04:45:00,66.7,66.7,29.47,North,8,0.0,0.0,100,0.00,,---,0.00,VWS V14.01,2013-06-29 08:45:00,
2013-06-29 04:50:00,66.7,66.7,29.47,North,7,0.0,0.0,100,0.00,,---,0.00,VWS V14.01,2013-06-29 08:50:00,
2013-06-29 04:55:00,66.7,66.7,29.47,North,7,0.0,0.0,100,0.00,,---,0.00,VWS V14.01,2013-06-29 08:55:00,
2013-06-29 05:00:00,66.6,66.6,29.47,North,7,0.0,0.0,100,0.00,,---,0.00,VWS V14.01,2013-06-29 09:00:00,
2013-06-29 05:05:00,66.6,66.6,29.47,North,7,0.0,0.0,100,0.00,,---,0.00,VWS V14.01,2013-06-29 09:05:00,
2013-06-29 05:10:00,66.7,66.7,29.47,North,7,0.0,0.0,100,0.00,,---,0.00,VWS V14.01,2013-06-29 09:10:00,
2013-06-29 05:15:00,66.7,66.7,29.47,North,8,0.0,0.0,100,0.00,,---,0.00,VWS V14.01,2013-06-29 09:15:00,
2013-06-29 05:20:00,66.7,66.7,29.47,North,7,0.0,0.4,100,0.00,,---,0.00,VWS V14.01,2013-06-29 09:20:00,
2013-06-29 05:25:00,66.7,66.7,29.47,North,7,0.0,0.0,100,0.00,,---,0.00,VWS V14.01,2013-06-29 09:25:00,
2013-06-29 05:30:00,66.7,66.7,29.47,North,5,0.0,0.0,100,0.00,,---,0.00,VWS V14.01,2013-06-29 09:30:00,
2013-06-29 05:35:00,66.9,66.9,29.47,North,7,0.0,0.0,100,0.00,,---,0.00,VWS V14.01,2013-06-29 09:35:00,
2013-06-29 05:40:00,66.9,66.9,29.47,North,7,0.0,0.0,100,0.00,,---,0.00,VWS V14.01,2013-06-29 09:40:00,
2013-06-29 05:45:00,66.9,66.9,29.47,North,7,0.0,0.0,100,0.00,,---,0.00,VWS V14.01,2013-06-29 09:45:00,
2013-06-29 05:50:00,66.9,66.9,29.47,North,7,0.0,0.0,100,0.00,,---,0.00,VWS V14.01,2013-06-29 09:50:00,
2013-06-29 05:55:00,66.9,66.9,29.47,North,7,0.0,0.0,100,0.00,,---,0.00,VWS V14.01,2013-06-29 09:55:00,
2013-06-29 06:00:00,66.9,66.9,29.50,North,7,0.0,0.0,100,0.00,,---,0.00,VWS V14.01,2013-06-29 10:00:00,
2013-06-29 06:05:00,67.1,67.1,29.50,North,7,0.0,0.0,100,0.00,,---,0.00,VWS V14.01,2013-06-29 10:05:00,
2013-06-29 06:10:00,67.1,67.1,29.50,North,7,0.0,0.0,100,0.00,,---,0.00,VWS V14.01,2013-06-29 10:10:00,
2013-06-29 06:15:00,67.3,67.3,29.50,North,7,0.0,0.0,100,0.00,,---,0.00,VWS V14.01,2013-06-29 10:15:00,
2013-06-29 06:20:00,67.3,67.3,29.50,North,7,0.0,0.0,100,0.00,,---,0.00,VWS V14.01,2013-06-29 10:20:00,
2013-06-29 06:25:00,67.5,67.5,29.50,North,7,0.0,0.0,100,0.00,,---,0.00,VWS V14.01,2013-06-29 10:25:00,
2013-06-29 06:30:00,67.6,67.6,29.50,North,359,0.0,0.0,100,0.00,,---,0.00,VWS V14.01,2013-06-29 10:30:00,
2013-06-29 06:35:00,68.0,68.0,29.50,North,359,0.0,0.0,100,0.00,,---,0.00,VWS V14.01,2013-06-29 10:35:00,
2013-06-29 06:40:00,68.2,68.2,29.50,North,359,0.0,0.0,100,0.00,,---,0.00,VWS V14.01,2013-06-29 10:40:00,
2013-06-29 06:45:00,68.2,68.2,29.50,North,359,0.0,0.0,100,0.00,,---,0.00,VWS V14.01,2013-06-29 10:45:00,
2013-06-29 06:50:00,68.2,68.2,29.50,North,359,0.0,0.0,100,0.00,,---,0.00,VWS V14.01,2013-06-29 10:50:00,
2013-06-29 06:55:00,68.2,68.2,29.50,North,359,0.0,0.9,100,0.00,,---,0.00,VWS V14.01,2013-06-29 10:55:00,
2013-06-29 07:00:00,68.4,68.4,29.50,North,4,0.0,0.0,100,0.00,,---,0.00,VWS V14.01,2013-06-29 11:00:00,
2013-06-29 07:05:00,68.5,68.6,29.50,ESE,104,0.0,0.0,100,0.00,,---,0.00,VWS V14.01,2013-06-29 11:05:00,
2013-06-29 07:10:00,68.7,68.7,29.50,ESE,104,0.0,4.0,100,0.00,,---,0.00,VWS V14.01,2013-06-29 11:10:00,
2013-06-29 07:15:00,68.7,68.7,29.50,ESE,105,0.0,3.6,100,0.00,,---,0.00,VWS V14.01,2013-06-29 11:15:00,
2013-06-29 07:20:00,68.9,68.9,29.50,ESE,107,0.0,0.0,100,0.00,,---,0.00,VWS V14.01,2013-06-29 11:20:00,
2013-06-29 07:25:00,69.4,69.4,29.50,ESE,118,2.2,3.1,100,0.00,,---,0.00,VWS V14.01,2013-06-29 11:25:00,
2013-06-29 07:30:00,69.8,69.8,29.50,SSE,161,1.8,2.7,100,0.00,,---,0.00,VWS V14.01,2013-06-29 11:30:00,
2013-06-29 07:35:00,70.0,70.0,29.50,SSE,164,4.9,4.9,100,0.00,,---,0.00,VWS V14.01,2013-06-29 11:35:00,
2013-06-29 07:40:00,70.2,70.2,29.50,SSE,164,0.0,4.9,100,0.00,,---,0.00,VWS V14.01,2013-06-29 11:40:00,
2013-06-29 07:45:00,70.2,70.2,29.50,SSE,166,0.0,4.9,100,0.00,,---,0.00,VWS V14.01,2013-06-29 11:45:00,
2013-06-29 07:50:00,70.3,70.3,29.50,South,170,4.5,5.4,100,0.00,,---,0.00,VWS V14.01,2013-06-29 11:50:00,
2013-06-29 07:55:00,70.3,70.3,29.50,SSW,207,4.5,8.5,100,0.00,,---,0.00,VWS V14.01,2013-06-29 11:55:00,
2013-06-29 08:00:00,70.2,70.2,29.50,SSW,212,8.9,11.2,100,0.00,,---,0.00,VWS V14.01,2013-06-29 12:00:00,
2013-06-29 08:05:00,70.5,70.5,29.50,SW,215,5.8,10.3,100,0.00,,---,0.00,VWS V14.01,2013-06-29 12:05:00,
2013-06-29 08:10:00,70.7,70.7,29.50,SW,214,5.8,8.5,100,0.00,,---,0.00,VWS V14.01,2013-06-29 12:10:00,
2013-06-29 08:15:00,70.9,70.9,29.50,SSW,212,4.0,8.1,100,0.00,,---,0.00,VWS V14.01,2013-06-29 12:15:00,
2013-06-29 08:20:00,71.4,71.4,29.50,SSW,211,5.4,6.3,100,0.00,,---,0.00,VWS V14.01,2013-06-29 12:20:00,
2013-06-29 08:25:00,72.3,72.3,29.50,SSW,208,4.0,6.7,100,0.00,,---,0.00,VWS V14.01,2013-06-29 12:25:00,
2013-06-29 08:30:00,73.0,71.2,29.50,SSW,200,0.0,4.9,94,0.00,,---,0.00,VWS V14.01,2013-06-29 12:30:00,
2013-06-29 08:35:00,73.0,70.6,29.50,SSW,200,5.8,6.3,92,0.00,,---,0.00,VWS V14.01,2013-06-29 12:35:00,
2013-06-29 08:40:00,72.9,68.4,29.50,SSW,198,0.4,5.8,86,0.00,,---,0.00,VWS V14.01,2013-06-29 12:40:00,
2013-06-29 08:45:00,72.9,68.4,29.50,SSW,195,4.5,4.5,86,0.00,,---,0.00,VWS V14.01,2013-06-29 12:45:00,
2013-06-29 08:50:00,72.7,68.3,29.50,South,187,2.7,6.3,86,0.00,,---,0.00,VWS V14.01,2013-06-29 12:50:00,
2013-06-29 08:55:00,72.9,68.4,29.50,SSE,164,3.1,6.3,86,0.00,,---,0.00,VWS V14.01,2013-06-29 12:55:00,
2013-06-29 09:00:00,73.0,68.3,29.50,SSE,163,4.9,4.9,85,0.00,,---,0.00,VWS V14.01,2013-06-29 13:00:00,
2013-06-29 09:05:00,73.4,69.0,29.50,South,174,3.1,5.4,86,0.00,,---,0.00,VWS V14.01,2013-06-29 13:05:00,
2013-06-29 09:10:00,73.4,67.9,29.50,SSE,147,7.2,9.4,83,0.00,,---,0.00,VWS V14.01,2013-06-29 13:10:00,
2013-06-29 09:15:00,73.6,68.8,29.50,SSE,154,1.8,7.2,85,0.00,,---,0.00,VWS V14.01,2013-06-29 13:15:00,
2013-06-29 09:20:00,73.6,68.1,29.50,South,183,3.1,7.6,83,0.00,,---,0.00,VWS V14.01,2013-06-29 13:20:00,
2013-06-29 09:25:00,73.6,68.4,29.50,South,185,6.7,7.2,84,0.00,,---,0.00,VWS V14.01,2013-06-29 13:25:00,
2013-06-29 09:30:00,73.4,68.3,29.50,SSW,208,7.6,8.9,84,0.00,,---,0.00,VWS V14.01,2013-06-29 13:30:00,
2013-06-29 09:35:00,73.6,68.4,29.50,SSW,197,2.7,8.1,84,0.00,,---,0.00,VWS V14.01,2013-06-29 13:35:00,
2013-06-29 09:40:00,73.8,69.0,29.50,SSW,197,8.1,8.9,85,0.00,,---,0.00,VWS V14.01,2013-06-29 13:40:00,
2013-06-29 09:45:00,74.1,68.3,29.50,SSW,209,6.7,11.2,82,0.00,,---,0.00,VWS V14.01,2013-06-29 13:45:00,
2013-06-29 09:50:00,74.1,67.9,29.50,SSW,212,9.4,12.1,81,0.00,,---,0.00,VWS V14.01,2013-06-29 13:50:00,
2013-06-29 09:55:00,74.3,68.5,29.50,South,191,9.4,9.8,82,0.00,,---,0.00,VWS V14.01,2013-06-29 13:55:00,
2013-06-29 10:00:00,75.0,69.2,29.50,SSW,201,5.8,9.4,82,0.00,,---,0.00,VWS V14.01,2013-06-29 14:00:00,
2013-06-29 10:05:00,77.2,68.3,29.50,South,181,6.7,11.6,74,0.00,,---,0.00,VWS V14.01,2013-06-29 14:05:00,
2013-06-29 10:10:00,75.7,68.8,29.50,SSW,200,11.2,12.1,79,0.00,,---,0.00,VWS V14.01,2013-06-29 14:10:00,
2013-06-29 10:15:00,75.7,70.2,29.50,SSW,209,9.4,14.3,83,0.00,,---,0.00,VWS V14.01,2013-06-29 14:15:00,
2013-06-29 10:20:00,75.9,68.9,29.50,SSW,195,6.3,11.2,79,0.00,,---,0.00,VWS V14.01,2013-06-29 14:20:00,
2013-06-29 10:25:00,76.1,69.5,29.50,South,181,5.4,10.3,80,0.00,,---,0.00,VWS V14.01,2013-06-29 14:25:00,
2013-06-29 10:30:00,76.1,68.4,29.50,SW,229,10.7,14.8,77,0.00,,---,0.00,VWS V14.01,2013-06-29 14:30:00,
2013-06-29 10:35:00,75.9,67.0,29.50,SSW,211,10.3,17.9,74,0.00,,---,0.00,VWS V14.01,2013-06-29 14:35:00,
2013-06-29 10:40:00,75.9,67.8,29.50,SW,218,8.1,16.1,76,0.00,,---,0.00,VWS V14.01,2013-06-29 14:40:00,
2013-06-29 10:45:00,76.6,68.5,29.50,SW,215,12.1,15.2,76,0.00,,---,0.00,VWS V14.01,2013-06-29 14:45:00,
2013-06-29 10:50:00,77.4,68.0,29.50,SSW,202,18.3,18.3,73,0.00,,---,0.00,VWS V14.01,2013-06-29 14:50:00,
2013-06-29 10:55:00,77.5,68.6,29.50,SSW,192,14.8,18.3,74,0.00,,---,0.00,VWS V14.01,2013-06-29 14:55:00,
2013-06-29 11:00:00,77.5,68.2,29.50,SW,232,8.5,15.7,73,0.00,,---,0.00,VWS V14.01,2013-06-29 15:00:00,
2013-06-29 11:05:00,76.6,67.7,29.50,SW,222,10.7,15.2,74,0.00,,---,0.00,VWS V14.01,2013-06-29 15:05:00,
2013-06-29 11:10:00,75.7,68.0,29.50,SSW,209,12.1,15.7,77,0.00,,---,0.00,VWS V14.01,2013-06-29 15:10:00,
2013-06-29 11:15:00,76.3,69.3,29.50,South,173,8.5,14.3,79,0.00,,---,0.00,VWS V14.01,2013-06-29 15:15:00,
2013-06-29 11:20:00,76.1,69.5,29.50,SSE,152,8.5,13.9,80,0.00,,---,0.00,VWS V14.01,2013-06-29 15:20:00,
2013-06-29 11:25:00,76.6,68.5,29.50,SSW,208,9.4,16.1,76,0.00,,---,0.00,VWS V14.01,2013-06-29 15:25:00,
2013-06-29 11:30:00,76.6,68.5,29.50,South,180,13.9,16.1,76,0.00,,---,0.00,VWS V14.01,2013-06-29 15:30:00,
2013-06-29 11:35:00,79.5,69.3,29.50,SSW,202,11.2,19.7,71,0.00,,---,0.00,VWS V14.01,2013-06-29 15:35:00,
2013-06-29 11:40:00,80.8,70.5,29.50,SSE,167,11.6,18.3,71,0.00,,---,0.00,VWS V14.01,2013-06-29 15:40:00,
2013-06-29 11:45:00,80.8,70.1,29.50,SSW,207,14.3,16.1,70,0.00,,---,0.00,VWS V14.01,2013-06-29 15:45:00,
2013-06-29 11:50:00,79.5,69.3,29.50,SW,218,14.3,18.3,71,0.00,,---,0.00,VWS V14.01,2013-06-29 15:50:00,
2013-06-29 11:55:00,78.6,68.8,29.50,SSW,192,11.6,15.7,72,0.00,,---,0.00,VWS V14.01,2013-06-29 15:55:00,
2013-06-29 12:00:00,80.2,70.0,29.50,SSE,164,8.5,13.9,71,0.00,,---,0.00,VWS V14.01,2013-06-29 16:00:00,
2013-06-29 12:05:00,81.1,69.2,29.50,SW,223,13.0,17.4,67,0.00,,---,0.00,VWS V14.01,2013-06-29 16:05:00,
2013-06-29 12:10:00,81.3,69.8,29.50,SSW,202,9.4,15.7,68,0.00,,---,0.00,VWS V14.01,2013-06-29 16:10:00,
2013-06-29 12:15:00,82.2,68.8,29.50,SW,235,15.2,17.0,64,0.00,,---,0.00,VWS V14.01,2013-06-29 16:15:00,
2013-06-29 12:20:00,82.9,69.1,29.50,SSW,211,8.5,17.9,63,0.00,,---,0.00,VWS V14.01,2013-06-29 16:20:00,
2013-06-29 12:25:00,82.0,68.7,29.50,SW,218,9.4,14.8,64,0.00,,---,0.00,VWS V14.01,2013-06-29 16:25:00,
2013-06-29 12:30:00,81.1,67.4,29.50,SW,218,12.5,16.6,63,0.00,,---,0.00,VWS V14.01,2013-06-29 16:30:00,
2013-06-29 12:35:00,80.2,67.4,29.50,WSW,239,7.6,16.6,65,0.00,,---,0.00,VWS V14.01,2013-06-29 16:35:00,
2013-06-29 12:40:00,79.9,68.8,29.50,SSW,212,13.9,17.0,69,0.00,,---,0.00,VWS V14.01,2013-06-29 16:40:00,
2013-06-29 12:45:00,80.2,68.3,29.50,SSW,208,8.1,15.7,67,0.00,,---,0.00,VWS V14.01,2013-06-29 16:45:00,
2013-06-29 12:50:00,80.8,68.8,29.50,SW,214,11.2,16.1,67,0.00,,---,0.00,VWS V14.01,2013-06-29 16:50:00,
2013-06-29 12:55:00,81.0,69.0,29.50,SSW,192,5.8,13.4,67,0.00,,---,0.00,VWS V14.01,2013-06-29 16:55:00,
2013-06-29 13:00:00,80.8,69.7,29.50,SSW,208,16.1,16.1,69,0.00,,---,0.00,VWS V14.01,2013-06-29 17:00:00,
2013-06-29 13:05:00,80.4,68.9,29.50,SSW,207,16.6,17.4,68,0.00,,---,0.00,VWS V14.01,2013-06-29 17:05:00,
2013-06-29 13:10:00,79.5,68.9,29.50,SW,226,11.2,16.6,70,0.00,,---,0.00,VWS V14.01,2013-06-29 17:10:00,
2013-06-29 13:15:00,77.9,68.2,29.50,SW,222,10.7,17.0,72,0.00,,---,0.00,VWS V14.01,2013-06-29 17:15:00,
2013-06-29 13:20:00,77.5,69.0,29.50,WSW,254,8.9,15.2,75,0.00,,---,0.00,VWS V14.01,2013-06-29 17:20:00,
2013-06-29 13:25:00,77.4,69.2,29.50,WSW,254,4.5,9.4,76,0.00,,---,0.00,VWS V14.01,2013-06-29 17:25:00,
2013-06-29 13:30:00,77.4,68.8,29.50,SW,229,8.1,13.4,75,0.00,,---,0.00,VWS V14.01,2013-06-29 17:30:00,
2013-06-29 13:35:00,77.9,68.9,29.50,SSW,208,8.1,12.5,74,0.00,,---,0.00,VWS V14.01,2013-06-29 17:35:00,
2013-06-29 13:40:00,79.2,68.9,29.50,SW,221,12.1,17.4,71,0.00,,---,0.00,VWS V14.01,2013-06-29 17:40:00,
2013-06-29 13:45:00,79.5,69.7,29.50,SSW,207,13.0,16.1,72,0.00,,---,0.00,VWS V14.01,2013-06-29 17:45:00,
2013-06-29 13:50:00,79.7,69.1,29.50,SW,216,9.4,15.7,70,0.00,,---,0.00,VWS V14.01,2013-06-29 17:50:00,
2013-06-29 13:55:00,80.4,69.8,29.50,South,187,7.6,17.0,70,0.00,,---,0.00,VWS V14.01,2013-06-29 17:55:00,
2013-06-29 14:00:00,81.3,70.6,29.50,SW,214,12.1,17.0,70,0.00,,---,0.00,VWS V14.01,2013-06-29 18:00:00,
2013-06-29 14:05:00,83.7,72.0,29.50,SW,219,10.7,13.4,68,0.00,,---,0.00,VWS V14.01,2013-06-29 18:05:00,
2013-06-29 14:10:00,83.5,70.5,29.50,SSW,192,9.4,15.7,65,0.00,,---,0.00,VWS V14.01,2013-06-29 18:10:00,
2013-06-29 14:15:00,82.9,71.7,29.50,South,187,9.8,15.7,69,0.00,,---,0.00,VWS V14.01,2013-06-29 18:15:00,
2013-06-29 14:20:00,82.8,71.6,29.50,SSW,201,11.2,15.2,69,0.00,,---,0.00,VWS V14.01,2013-06-29 18:20:00,
2013-06-29 14:25:00,82.6,70.5,29.50,SW,235,10.7,13.9,67,0.00,,---,0.00,VWS V14.01,2013-06-29 18:25:00,
2013-06-29 14:30:00,81.9,68.9,29.50,WSW,245,4.9,12.1,65,0.00,,---,0.00,VWS V14.01,2013-06-29 18:30:00,
2013-06-29 14:35:00,81.9,70.7,29.50,SSW,195,9.8,13.9,69,0.00,,---,0.00,VWS V14.01,2013-06-29 18:35:00,
2013-06-29 14:40:00,80.8,70.1,29.50,SSW,204,8.9,14.8,70,0.00,,---,0.00,VWS V14.01,2013-06-29 18:40:00,
2013-06-29 14:45:00,79.3,69.9,29.50,SW,223,9.4,15.2,73,0.00,,---,0.00,VWS V14.01,2013-06-29 18:45:00,
2013-06-29 14:50:00,78.3,69.7,29.50,SW,225,7.6,10.7,75,0.00,,---,0.00,VWS V14.01,2013-06-29 18:50:00,
2013-06-29 14:55:00,77.4,70.0,29.50,WSW,256,6.7,8.9,78,0.00,,---,0.00,VWS V14.01,2013-06-29 18:55:00,
2013-06-29 15:00:00,76.8,70.9,29.53,West,263,5.8,8.5,82,0.00,,---,0.00,VWS V14.01,2013-06-29 19:00:00,
2013-06-29 15:05:00,76.6,71.1,29.53,West,277,4.9,6.7,83,0.00,,---,0.00,VWS V14.01,2013-06-29 19:05:00,
2013-06-29 15:10:00,76.8,71.6,29.53,WNW,284,0.0,6.7,84,0.00,,---,0.00,VWS V14.01,2013-06-29 19:10:00,
2013-06-29 15:15:00,77.0,72.2,29.53,West,271,4.0,7.6,85,0.00,,---,0.00,VWS V14.01,2013-06-29 19:15:00,
2013-06-29 15:20:00,77.5,72.0,29.53,WSW,246,3.6,7.6,83,0.00,,---,0.00,VWS V14.01,2013-06-29 19:20:00,
2013-06-29 15:25:00,79.5,73.9,29.53,WSW,243,0.0,7.6,83,0.00,,---,0.00,VWS V14.01,2013-06-29 19:25:00,
2013-06-29 15:30:00,80.2,71.6,29.53,SW,236,0.0,6.3,75,0.00,,---,0.00,VWS V14.01,2013-06-29 19:30:00,
2013-06-29 15:35:00,81.0,72.7,29.53,WNW,285,4.5,6.3,76,0.00,,---,0.00,VWS V14.01,2013-06-29 19:35:00,
2013-06-29 15:40:00,80.1,70.6,29.53,West,281,0.0,4.5,73,0.00,,---,0.00,VWS V14.01,2013-06-29 19:40:00,
2013-06-29 15:45:00,79.9,70.5,29.53,WSW,250,1.3,4.9,73,0.00,,---,0.00,VWS V14.01,2013-06-29 19:45:00,
2013-06-29 15:50:00,79.9,70.1,29.53,WSW,250,0.0,4.9,72,0.00,,---,0.00,VWS V14.01,2013-06-29 19:50:00,
2013-06-29 15:55:00,80.2,70.8,29.53,WSW,250,4.9,5.4,73,0.00,,---,0.00,VWS V14.01,2013-06-29 19:55:00,
2013-06-29 16:00:00,80.4,70.6,29.53,WSW,252,0.0,4.9,72,0.00,,---,0.00,VWS V14.01,2013-06-29 20:00:00,
2013-06-29 16:05:00,80.8,71.3,29.53,WSW,250,0.0,0.0,73,0.00,,---,0.00,VWS V14.01,2013-06-29 20:05:00,
2013-06-29 16:10:00,81.1,71.3,29.53,WSW,250,0.0,0.0,72,0.00,,---,0.00,VWS V14.01,2013-06-29 20:10:00,
2013-06-29 16:15:00,80.6,70.3,29.53,WSW,250,0.0,0.0,71,0.00,,---,0.00,VWS V14.01,2013-06-29 20:15:00,
2013-06-29 16:20:00,80.6,71.2,29.53,WSW,252,1.3,1.3,73,0.00,,---,0.00,VWS V14.01,2013-06-29 20:20:00,
2013-06-29 16:25:00,80.4,70.6,29.53,NW,322,3.6,6.3,72,0.00,,---,0.00,VWS V14.01,2013-06-29 20:25:00,
2013-06-29 16:30:00,80.1,71.0,29.53,NW,323,5.4,6.7,74,0.00,,---,0.00,VWS V14.01,2013-06-29 20:30:00,
2013-06-29 16:35:00,79.2,71.3,29.53,NNW,329,5.4,7.6,77,0.00,,---,0.00,VWS V14.01,2013-06-29 20:35:00,
2013-06-29 16:40:00,78.6,71.2,29.53,NNW,343,3.6,6.3,78,0.00,,---,0.00,VWS V14.01,2013-06-29 20:40:00,
2013-06-29 16:45:00,78.3,71.6,29.53,NNW,332,5.4,8.5,80,0.00,,---,0.00,VWS V14.01,2013-06-29 20:45:00,
2013-06-29 16:50:00,77.5,71.2,29.53,NW,311,2.7,5.8,81,0.00,,---,0.00,VWS V14.01,2013-06-29 20:50:00,
2013-06-29 16:55:00,77.2,71.3,29.53,NW,311,0.0,4.9,82,0.00,,---,0.00,VWS V14.01,2013-06-29 20:55:00,
2013-06-29 17:00:00,77.0,71.8,29.56,NW,305,0.0,1.8,84,0.00,,---,0.00,VWS V14.01,2013-06-29 21:00:00,
2013-06-29 17:05:00,76.6,71.8,29.56,SW,232,4.5,7.6,85,0.00,,---,0.00,VWS V14.01,2013-06-29 21:05:00,
2013-06-29 17:10:00,75.9,71.8,29.56,SSW,212,10.7,15.2,87,0.00,,---,0.00,VWS V14.01,2013-06-29 21:10:00,
2013-06-29 17:15:00,75.2,72.1,29.56,SSW,211,6.3,14.8,90,0.00,,---,0.00,VWS V14.01,2013-06-29 21:15:00,
2013-06-29 17:20:00,75.2,74.0,29.56,SSW,205,6.7,10.3,96,0.00,,---,0.00,VWS V14.01,2013-06-29 21:20:00,
2013-06-29 17:25:00,75.4,75.4,29.56,SSW,205,0.0,7.2,100,0.00,,---,0.00,VWS V14.01,2013-06-29 21:25:00,
2013-06-29 17:30:00,75.9,75.9,29.56,SSW,205,0.0,2.2,100,0.00,,---,0.00,VWS V14.01,2013-06-29 21:30:00,
2013-06-29 17:35:00,76.1,76.1,29.56,SSW,205,0.0,0.0,100,0.00,,---,0.00,VWS V14.01,2013-06-29 21:35:00,
2013-06-29 17:40:00,76.6,76.7,29.56,SSW,204,0.0,0.0,100,0.00,,---,0.00,VWS V14.01,2013-06-29 21:40:00,
2013-06-29 17:45:00,76.8,76.8,29.56,SSW,204,0.0,0.4,100,0.00,,---,0.00,VWS V14.01,2013-06-29 21:45:00,
2013-06-29 17:50:00,76.8,76.8,29.56,SSW,209,2.7,2.7,100,0.00,,---,0.00,VWS V14.01,2013-06-29 21:50:00,
2013-06-29 17:55:00,76.6,76.7,29.56,SSW,211,0.0,2.7,100,0.00,,---,0.00,VWS V14.01,2013-06-29 21:55:00,
2013-06-29 18:00:00,76.8,76.8,29.56,SSW,209,0.0,0.4,100,0.00,,---,0.00,VWS V14.01,2013-06-29 22:00:00,
2013-06-29 18:05:00,77.0,77.0,29.56,SSW,209,0.0,0.0,100,0.00,,---,0.00,VWS V14.01,2013-06-29 22:05:00,
2013-06-29 18:10:00,77.5,77.6,29.56,SW,235,0.0,1.8,100,0.00,,---,0.00,VWS V14.01,2013-06-29 22:10:00,
2013-06-29 18:15:00,77.5,77.6,29.56,NNE,15,2.7,4.5,100,0.00,,---,0.00,VWS V14.01,2013-06-29 22:15:00,
2013-06-29 18:20:00,77.5,76.6,29.56,NNE,18,3.6,4.0,97,0.00,,---,0.00,VWS V14.01,2013-06-29 22:20:00,
2013-06-29 18:25:00,77.4,75.8,29.56,NNE,16,4.9,5.8,95,0.00,,---,0.00,VWS V14.01,2013-06-29 22:25:00,
2013-06-29 18:30:00,77.0,75.5,29.56,NE,35,2.7,6.7,95,0.00,,---,0.00,VWS V14.01,2013-06-29 22:30:00,
2013-06-29 18:35:00,76.8,75.6,29.56,NE,35,0.0,4.9,96,0.00,,---,0.00,VWS V14.01,2013-06-29 22:35:00,
2013-06-29 18:40:00,76.6,75.7,29.56,NE,35,2.2,4.5,97,0.00,,---,0.00,VWS V14.01,2013-06-29 22:40:00,
2013-06-29 18:45:00,76.1,75.5,29.56,North,9,4.9,6.7,98,0.00,,---,0.00,VWS V14.01,2013-06-29 22:45:00,
2013-06-29 18:50:00,76.3,76.3,29.56,North,8,3.1,4.9,100,0.00,,---,0.00,VWS V14.01,2013-06-29 22:50:00,
2013-06-29 18:55:00,76.3,76.3,29.56,North,11,3.1,5.4,100,0.00,,---,0.00,VWS V14.01,2013-06-29 22:55:00,
2013-06-29 19:00:00,76.5,76.5,29.59,North,11,0.0,4.0,100,0.00,,---,0.00,VWS V14.01,2013-06-29 23:00:00,
2013-06-29 19:05:00,76.5,76.5,29.59,North,11,0.0,0.0,100,0.00,,---,0.00,VWS V14.01,2013-06-29 23:05:00,
2013-06-29 19:10:00,76.5,76.5,29.59,North,11,0.0,0.0,100,0.00,,---,0.00,VWS V14.01,2013-06-29 23:10:00,
2013-06-29 19:15:00,76.5,76.5,29.59,North,11,0.0,0.0,100,0.00,,---,0.00,VWS V14.01,2013-06-29 23:15:00,
2013-06-29 19:20:00,76.3,76.3,29.59,NNE,28,0.0,0.0,100,0.00,,---,0.00,VWS V14.01,2013-06-29 23:20:00,
2013-06-29 19:25:00,76.3,76.3,29.59,NNE,28,0.0,0.0,100,0.00,,---,0.00,VWS V14.01,2013-06-29 23:25:00,
2013-06-29 19:30:00,76.5,76.5,29.59,NNE,28,0.0,0.0,100,0.00,,---,0.00,VWS V14.01,2013-06-29 23:30:00,
2013-06-29 19:35:00,76.6,76.7,29.59,NNE,28,0.0,0.0,100,0.00,,---,0.00,VWS V14.01,2013-06-29 23:35:00,
2013-06-29 19:40:00,76.8,76.8,29.59,NNE,28,0.0,0.0,100,0.00,,---,0.00,VWS V14.01,2013-06-29 23:40:00,
2013-06-29 19:45:00,76.6,76.7,29.59,NNE,28,1.3,1.8,100,0.00,,---,0.00,VWS V14.01,2013-06-29 23:45:00,
2013-06-29 19:50:00,76.6,76.7,29.59,NNE,28,0.0,1.3,100,0.00,,---,0.00,VWS V14.01,2013-06-29 23:50:00,
2013-06-29 19:55:00,76.6,76.7,29.59,NNE,28,0.0,0.0,100,0.00,,---,0.00,VWS V14.01,2013-06-29 23:55:00,
2013-06-29 20:00:00,76.5,76.5,29.59,NNE,28,0.0,0.0,100,0.00,,---,0.00,VWS V14.01,2013-06-30 00:00:00,
2013-06-29 20:05:00,76.3,76.3,29.59,NNE,28,0.0,0.0,100,0.00,,---,0.00,VWS V14.01,2013-06-30 00:05:00,
2013-06-29 20:10:00,76.3,76.3,29.59,NNE,28,0.0,0.0,100,0.00,,---,0.00,VWS V14.01,2013-06-30 00:10:00,
2013-06-29 20:15:00,76.1,76.1,29.62,NNE,28,0.0,0.0,100,0.00,,---,0.00,VWS V14.01,2013-06-30 00:15:00,
2013-06-29 20:20:00,75.9,75.9,29.62,NNE,28,0.0,0.0,100,0.00,,---,0.00,VWS V14.01,2013-06-30 00:20:00,
2013-06-29 20:25:00,76.1,76.1,29.62,NNE,28,0.0,0.0,100,0.00,,---,0.00,VWS V14.01,2013-06-30 00:25:00,
2013-06-29 20:30:00,75.9,75.9,29.62,NNE,28,0.0,0.0,100,0.00,,---,0.00,VWS V14.01,2013-06-30 00:30:00,
2013-06-29 20:35:00,75.9,75.9,29.62,NNE,28,0.0,0.0,100,0.00,,---,0.00,VWS V14.01,2013-06-30 00:35:00,
2013-06-29 20:40:00,75.9,75.9,29.62,NNE,28,0.0,0.0,100,0.00,,---,0.00,VWS V14.01,2013-06-30 00:40:00,
2013-06-29 20:45:00,75.7,75.8,29.62,NNE,28,0.0,0.0,100,0.00,,---,0.00,VWS V14.01,2013-06-30 00:45:00,
2013-06-29 20:50:00,75.4,75.4,29.62,NNE,28,0.0,0.0,100,0.00,,---,0.00,VWS V14.01,2013-06-30 00:50:00,
2013-06-29 20:55:00,74.8,74.8,29.62,NNE,28,0.0,0.0,100,0.00,,---,0.00,VWS V14.01,2013-06-30 00:55:00,
2013-06-29 21:00:00,74.5,74.5,29.62,NNE,28,0.0,0.0,100,0.00,,---,0.00,VWS V14.01,2013-06-30 01:00:00,
2013-06-29 21:05:00,74.1,74.1,29.62,NNE,28,0.0,0.0,100,0.00,,---,0.00,VWS V14.01,2013-06-30 01:05:00,
2013-06-29 21:10:00,73.9,73.9,29.62,NNE,28,0.0,0.0,100,0.00,,---,0.00,VWS V14.01,2013-06-30 01:10:00,
2013-06-29 21:15:00,73.6,73.6,29.62,NNE,28,0.0,0.0,100,0.00,,---,0.00,VWS V14.01,2013-06-30 01:15:00,
2013-06-29 21:20:00,73.2,73.2,29.62,NNE,28,0.0,0.0,100,0.00,,---,0.00,VWS V14.01,2013-06-30 01:20:00,
2013-06-29 21:25:00,73.0,73.1,29.62,NNE,28,0.0,0.0,100,0.00,,---,0.00,VWS V14.01,2013-06-30 01:25:00,
2013-06-29 21:30:00,73.0,73.1,29.62,NNE,25,0.0,0.0,100,0.00,,---,0.00,VWS V14.01,2013-06-30 01:30:00,
2013-06-29 21:35:00,72.7,72.7,29.62,NNE,28,0.0,0.0,100,0.00,,---,0.00,VWS V14.01,2013-06-30 01:35:00,
2013-06-29 21:40:00,72.7,72.7,29.62,NNE,29,0.0,0.0,100,0.00,,---,0.00,VWS V14.01,2013-06-30 01:40:00,
2013-06-29 21:45:00,72.3,72.3,29.62,NNE,28,0.0,0.0,100,0.00,,---,0.00,VWS V14.01,2013-06-30 01:45:00,
2013-06-29 21:50:00,72.3,72.3,29.62,NNE,28,0.0,0.0,100,0.00,,---,0.00,VWS V14.01,2013-06-30 01:50:00,
2013-06-29 21:55:00,72.3,72.3,29.62,NNE,28,0.0,0.0,100,0.00,,---,0.00,VWS V14.01,2013-06-30 01:55:00,
2013-06-29 22:00:00,71.8,71.8,29.65,NNE,28,0.0,0.0,100,0.00,,---,0.00,VWS V14.01,2013-06-30 02:00:00,
2013-06-29 22:05:00,71.6,71.6,29.65,NNE,28,0.0,0.4,100,0.00,,---,0.00,VWS V14.01,2013-06-30 02:05:00,
2013-06-29 22:10:00,72.0,72.0,29.65,NNE,28,3.1,3.6,100,0.00,,---,0.00,VWS V14.01,2013-06-30 02:10:00,
2013-06-29 22:15:00,71.4,71.4,29.65,South,170,0.0,3.6,100,0.00,,---,0.00,VWS V14.01,2013-06-30 02:15:00,
2013-06-29 22:20:00,71.4,71.4,29.65,South,171,4.5,4.5,100,0.00,,---,0.00,VWS V14.01,2013-06-30 02:20:00,
2013-06-29 22:25:00,71.8,71.8,29.65,SSW,197,4.5,5.4,100,0.00,,---,0.00,VWS V14.01,2013-06-30 02:25:00,
2013-06-29 22:30:00,72.1,72.2,29.65,SSW,209,4.0,5.4,100,0.00,,---,0.00,VWS V14.01,2013-06-30 02:30:00,
2013-06-29 22:35:00,72.1,72.2,29.65,SSW,208,3.1,4.9,100,0.00,,---,0.00,VWS V14.01,2013-06-30 02:35:00,
2013-06-29 22:40:00,72.5,72.5,29.65,SW,222,1.3,4.0,100,0.00,,---,0.00,VWS V14.01,2013-06-30 02:40:00,
2013-06-29 22:45:00,72.7,72.7,29.65,SSW,208,0.0,2.7,100,0.00,,---,0.00,VWS V14.01,2013-06-30 02:45:00,
2013-06-29 22:50:00,72.5,72.5,29.65,SSW,208,0.0,0.0,100,0.00,,---,0.00,VWS V14.01,2013-06-30 02:50:00,
2013-06-29 22:55:00,72.3,72.3,29.65,South,185,3.1,3.1,100,0.00,,---,0.00,VWS V14.01,2013-06-30 02:55:00,
2013-06-29 23:00:00,73.0,73.1,29.65,SSE,167,3.1,4.5,100,0.00,,---,0.00,VWS V14.01,2013-06-30 03:00:00,
2013-06-29 23:05:00,72.9,72.9,29.65,South,185,5.8,6.3,100,0.00,,---,0.00,VWS V14.01,2013-06-30 03:05:00,
2013-06-29 23:10:00,72.7,72.7,29.65,South,187,3.6,6.3,100,0.00,,---,0.00,VWS V14.01,2013-06-30 03:10:00,
2013-06-29 23:15:00,72.5,72.5,29.65,South,188,0.0,3.6,100,0.00,,---,0.00,VWS V14.01,2013-06-30 03:15:00,
2013-06-29 23:20:00,72.1,72.2,29.65,South,188,0.0,0.0,100,0.00,,---,0.00,VWS V14.01,2013-06-30 03:20:00,
2013-06-29 23:25:00,71.6,71.6,29.65,South,188,0.0,0.0,100,0.00,,---,0.00,VWS V14.01,2013-06-30 03:25:00,
2013-06-29 23:30:00,71.2,71.2,29.65,South,187,2.2,4.5,100,0.00,,---,0.00,VWS V14.01,2013-06-30 03:30:00,
2013-06-29 23:35:00,71.2,71.2,29.65,South,187,2.2,3.1,100,0.00,,---,0.00,VWS V14.01,2013-06-30 03:35:00,
2013-06-29 23:40:00,71.1,71.1,29.65,South,187,4.0,4.0,100,0.00,,---,0.00,VWS V14.01,2013-06-30 03:40:00,
2013-06-29 23:45:00,71.1,71.1,29.65,South,187,2.7,5.4,100,0.00,,---,0.00,VWS V14.01,2013-06-30 03:45:00,
2013-06-29 23:50:00,71.2,71.2,29.65,South,187,0.0,3.1,100,0.00,,---,0.00,VWS V14.01,2013-06-30 03:50:00,
2013-06-29 23:55:00,71.1,71.1,29.65,South,188,0.0,0.0,100,0.00,,---,0.00,VWS V14.01,2013-06-30 03:55:00,